| time (UTC) | temp F | wind direction | speed MPH | gust MPH | rain 1hr in | rain 24hr in | rain mn in | humidity % | barometer mb |
| 20260903201803 | 67 | 290 | 6.0 | 8.0 | 2.06 | 4.11 | 0.00 | 83 | 1012.5 |
| 20260903201117 | 67 | 194 | 5.0 | 13.0 | 2.06 | 4.11 | 0.00 | 83 | 1012.2 |
| 20260903200003 | 72 | 360 | 9.0 | 13.0 | 1.03 | 3.08 | 0.00 | 57 | 1014.0 |
| 20260903195403 | 67 | 177 | 4.0 | 4.0 | 0.00 | 2.06 | 0.00 | 83 | 1012.2 |
| 20260903194717 | 68 | 180 | 4.0 | 4.0 | 0.00 | 2.06 | 0.00 | 82 | 1012.4 |
| 20260903193603 | 68 | 315 | 4.0 | 4.0 | 2.06 | 2.06 | 0.00 | 81 | 1012.5 |
| 20260903192703 | 68 | 137 | 5.0 | 8.0 | 2.06 | 2.06 | 0.00 | 81 | 1012.4 |
| 20260903191803 | 68 | 171 | 5.0 | 8.0 | 2.06 | 2.06 | 0.00 | 79 | 1012.2 |
| 20260903190903 | 69 | 353 | 6.0 | 10.0 | 2.06 | 2.06 | 0.00 | 73 | 1012.7 |
| 20260903190003 | 70 | 318 | 7.0 | 10.0 | 2.06 | 2.06 | 0.00 | 73 | 1012.6 |
| 20260903185618 | 69 | 311 | 7.0 | 10.0 | 2.06 | 2.06 | 0.00 | 75 | 1012.5 |
| 20260903184503 | 69 | 144 | 6.0 | 8.0 | 2.06 | 2.06 | 0.00 | 81 | 1012.9 |
| 20260903183816 | 69 | 164 | 6.0 | 8.0 | 0.00 | 0.00 | 0.00 | 82 | 1012.7 |
| 20260903182703 | 69 | 212 | 6.0 | 9.0 | 0.00 | 0.00 | 0.00 | 82 | 1012.5 |
| 20260903181803 | 70 | 199 | 6.0 | 8.0 | 0.00 | 0.00 | 0.00 | 81 | 1012.9 |
| 20260903180903 | 70 | 186 | 7.0 | 9.0 | 0.00 | 0.00 | 0.00 | 80 | 1012.6 |
| 20260903180003 | 71 | 200 | 7.0 | 8.0 | 0.00 | 0.00 | 0.00 | 78 | 1012.2 |
| 20260903175403 | 71 | 219 | 8.0 | 10.0 | 0.00 | 0.00 | 0.00 | 77 | 1012.3 |
| 20260903174503 | 72 | 181 | 7.0 | 11.0 | 0.00 | 0.00 | 0.00 | 77 | 1012.4 |
| 20260903173818 | 72 | 196 | 7.0 | 11.0 | 0.00 | 0.00 | 0.00 | 77 | 1012.7 |
| 20260903172703 | 72 | 201 | 7.0 | 9.0 | 0.00 | 0.00 | 0.00 | 75 | 1012.6 |
| 20260903171803 | 73 | 230 | 7.0 | 11.0 | 0.00 | 0.00 | 0.00 | 73 | 1012.2 |
| 20260903170903 | 73 | 182 | 6.0 | 11.0 | 0.00 | 0.00 | 0.00 | 73 | 1012.5 |
| 20260903170003 | 73 | 178 | 7.0 | 12.0 | 0.00 | 0.00 | 0.00 | 72 | 1012.5 |
| 20260903165403 | 73 | 191 | 6.0 | 8.0 | 0.00 | 0.00 | 0.00 | 73 | 1012.5 |
| 20260903164503 | 73 | 173 | 6.0 | 11.0 | 0.00 | 0.00 | 0.00 | 72 | 1012.6 |
| 20260903163603 | 76 | 180 | 6.0 | 6.0 | 0.00 | 0.00 | 0.00 | 66 | 1013.1 |
| 20260903162703 | 76 | 180 | 6.0 | 6.0 | 0.00 | 0.00 | 0.00 | 66 | 1013.1 |
| 20260903161803 | 76 | 180 | 6.0 | 6.0 | 0.00 | 0.00 | 0.00 | 66 | 1013.1 |
| 20260903160903 | 76 | 192 | 6.0 | 7.0 | 0.00 | 0.00 | 0.00 | 66 | 1013.1 |
| 20260903160003 | 77 | 275 | 6.0 | 8.0 | 0.00 | 0.00 | 0.00 | 66 | 1013.0 |
| 20260903155617 | 78 | 312 | 7.0 | 8.0 | 0.00 | 0.00 | 0.00 | 66 | 1012.8 |
| 20260903154503 | 80 | 315 | 8.0 | 8.0 | 0.00 | 0.00 | 0.00 | 55 | 1013.1 |
| 20260903153603 | 80 | 275 | 9.0 | 10.0 | 0.00 | 0.00 | 0.00 | 55 | 1013.1 |
| 20260903152703 | 79 | 283 | 8.0 | 10.0 | 0.00 | 0.00 | 0.00 | 55 | 1013.1 |
| 20260903152018 | 79 | 173 | 6.0 | 9.0 | 0.00 | 0.00 | 0.00 | 55 | 1013.0 |
| 20260903151117 | 78 | 185 | 5.0 | 6.0 | 0.00 | 0.00 | 0.00 | 59 | 1013.4 |
| 20260903150003 | 78 | 264 | 7.0 | 11.0 | 0.00 | 0.00 | 0.00 | 56 | 1013.4 |
| 20260903145403 | 78 | 237 | 5.0 | 8.0 | 0.00 | 0.00 | 0.00 | 60 | 1013.2 |
| 20260903144717 | 77 | 214 | 7.0 | 8.0 | 0.00 | 0.00 | 0.00 | 59 | 1013.4 |
| 20260903143603 | 78 | 246 | 9.0 | 13.0 | 0.00 | 0.00 | 0.00 | 58 | 1013.3 |
| 20260903142703 | 78 | 274 | 8.0 | 13.0 | 0.00 | 0.00 | 0.00 | 57 | 1013.6 |
| 20260903141803 | 77 | 307 | 7.0 | 11.0 | 0.00 | 0.00 | 0.00 | 60 | 1013.6 |
| 20260903140903 | 77 | 303 | 8.0 | 11.0 | 0.00 | 0.00 | 0.00 | 60 | 1013.6 |
| 20260903140003 | 77 | 314 | 9.0 | 15.0 | 0.00 | 0.00 | 0.00 | 59 | 1013.6 |
| 20260903135403 | 77 | 337 | 8.0 | 12.0 | 0.00 | 0.00 | 0.00 | 60 | 1013.6 |
| 20260903134503 | 76 | 322 | 8.0 | 10.0 | 0.00 | 0.00 | 0.00 | 61 | 1013.6 |
| 20260903133603 | 77 | 254 | 9.0 | 13.0 | 0.00 | 0.00 | 0.00 | 60 | 1013.7 |
| 20260903132918 | 77 | 262 | 9.0 | 15.0 | 0.00 | 0.00 | 0.00 | 59 | 1013.6 |
| 20260903131803 | 77 | 256 | 8.0 | 11.0 | 0.00 | 0.00 | 0.00 | 60 | 1013.8 |
| 20260903130903 | 77 | 271 | 8.0 | 10.0 | 0.00 | 0.00 | 0.00 | 61 | 1013.5 |
| 20260903130003 | 76 | 269 | 6.0 | 10.0 | 0.00 | 0.00 | 0.00 | 63 | 1013.8 |
| 20260903125403 | 76 | 269 | 6.0 | 10.0 | 0.00 | 0.00 | 0.00 | 66 | 1013.5 |
| 20260903124503 | 76 | 70 | 5.0 | 8.0 | 0.00 | 0.00 | 0.00 | 69 | 1013.5 |
| 20260903123603 | 76 | 189 | 5.0 | 8.0 | 0.00 | 0.00 | 0.00 | 71 | 1013.5 |
| 20260903122703 | 75 | 188 | 3.0 | 5.0 | 0.00 | 0.00 | 0.00 | 75 | 1013.9 |
| 20260903121803 | 73 | 181 | 4.0 | 7.0 | 0.00 | 0.00 | 0.00 | 74 | 1013.8 |
| 20260903120903 | 73 | 206 | 4.0 | 7.0 | 0.00 | 0.00 | 0.00 | 73 | 1013.9 |
| 20260903120003 | 74 | 192 | 5.0 | 8.0 | 0.00 | 0.00 | 0.00 | 73 | 1013.7 |
| 20260903115617 | 74 | 248 | 6.0 | 8.0 | 0.00 | 0.00 | 0.00 | 73 | 1013.7 |
| 20260903114503 | 73 | 263 | 3.0 | 6.0 | 0.00 | 0.01 | 0.00 | 73 | 1013.9 |
| 20260903113603 | 72 | 10 | 2.0 | 4.0 | 0.00 | 0.02 | 0.00 | 76 | 1013.9 |
| 20260903112703 | 71 | 353 | 4.0 | 8.0 | 0.00 | 0.02 | 0.00 | 80 | 1013.8 |
| 20260903112016 | 71 | 326 | 6.0 | 8.0 | 0.00 | 0.02 | 0.00 | 78 | 1013.9 |
| 20260903110903 | 72 | 315 | 6.0 | 8.0 | 0.00 | 0.02 | 0.00 | 76 | 1013.8 |
| 20260903110003 | 72 | 325 | 6.0 | 8.0 | 0.00 | 0.02 | 0.00 | 74 | 1013.8 |
| 20260903105403 | 72 | 314 | 8.0 | 13.0 | 0.00 | 0.02 | 0.00 | 70 | 1013.8 |
| 20260903104718 | 73 | 243 | 8.0 | 13.0 | 0.00 | 0.02 | 0.00 | 70 | 1013.9 |
| 20260903103603 | 74 | 292 | 5.0 | 8.0 | 0.00 | 0.02 | 0.00 | 68 | 1014.0 |
| 20260903102703 | 74 | 246 | 5.0 | 8.0 | 0.00 | 0.02 | 0.00 | 69 | 1013.7 |
| 20260903101803 | 74 | 268 | 5.0 | 8.0 | 0.00 | 0.02 | 0.00 | 71 | 1013.7 |
| 20260903100903 | 73 | 32 | 5.0 | 9.0 | 0.00 | 0.02 | 0.00 | 73 | 1013.8 |
| 20260903100003 | 72 | 341 | 6.0 | 9.0 | 0.00 | 0.02 | 0.00 | 75 | 1013.7 |
| 20260903095403 | 72 | 323 | 4.0 | 7.0 | 0.00 | 0.02 | 0.00 | 76 | 1013.9 |
| 20260903094718 | 72 | 276 | 4.0 | 6.0 | 0.00 | 0.02 | 0.00 | 76 | 1013.8 |
| 20260903093603 | 71 | 203 | 5.0 | 9.0 | 0.00 | 0.02 | 0.00 | 77 | 1013.8 |
| 20260903092703 | 71 | 185 | 4.0 | 6.0 | 0.00 | 0.02 | 0.00 | 78 | 1013.9 |
| 20260903092018 | 70 | 335 | 4.0 | 7.0 | 0.00 | 0.02 | 0.00 | 79 | 1013.9 |
| 20260903090903 | 69 | 179 | 6.0 | 9.0 | 0.00 | 0.02 | 0.00 | 80 | 1014.0 |
| 20260903090003 | 69 | 211 | 4.0 | 5.0 | 0.00 | 0.02 | 0.00 | 79 | 1014.0 |
| 20260903085403 | 69 | 244 | 4.0 | 5.0 | 0.00 | 0.02 | 0.00 | 79 | 1014.0 |
| 20260903084503 | 69 | 188 | 3.0 | 5.0 | 0.00 | 0.02 | 0.00 | 80 | 1014.1 |
| 20260903083603 | 68 | 196 | 4.0 | 8.0 | 0.00 | 0.02 | 0.00 | 80 | 1013.8 |
| 20260903082703 | 68 | 217 | 5.0 | 8.0 | 0.00 | 0.02 | 0.00 | 80 | 1014.0 |
| 20260903081803 | 68 | 216 | 4.0 | 8.0 | 0.00 | 0.02 | 0.00 | 80 | 1013.9 |
| 20260903080903 | 68 | 278 | 6.0 | 11.0 | 0.00 | 0.02 | 0.00 | 78 | 1013.8 |
| 20260903080003 | 69 | 190 | 5.0 | 11.0 | 0.00 | 0.04 | 0.00 | 77 | 1013.9 |
| 20260903075403 | 69 | 126 | 5.0 | 11.0 | 0.00 | 0.04 | 0.00 | 77 | 1013.7 |
| 20260903074503 | 69 | 257 | 5.0 | 11.0 | 0.00 | 0.04 | 0.00 | 78 | 1013.7 |
| 20260903073603 | 69 | 203 | 4.0 | 5.0 | 0.00 | 0.04 | 0.00 | 80 | 1013.4 |
| 20260903072703 | 68 | 13 | 4.0 | 6.0 | 0.00 | 0.05 | 0.00 | 82 | 1013.5 |
| 20260903072017 | 67 | 288 | 4.0 | 6.0 | 0.00 | 0.05 | 0.00 | 84 | 1013.4 |
| 20260903070903 | 67 | 252 | 5.0 | 10.0 | 0.00 | 0.05 | 0.00 | 90 | 1013.6 |
| 20260903070218 | 66 | 255 | 4.0 | 8.0 | 0.00 | 0.05 | 0.00 | 93 | 1013.3 |
| 20260903065403 | 65 | 196 | 3.0 | 8.0 | 0.00 | 0.05 | 0.00 | 94 | 1013.3 |
| 20260903064716 | 65 | 199 | 4.0 | 8.0 | 0.00 | 0.05 | 0.00 | 94 | 1013.2 |
| 20260903063603 | 65 | 193 | 1.0 | 3.0 | 0.00 | 0.05 | 0.00 | 93 | 1013.4 |
| 20260903062703 | 65 | 174 | 2.0 | 3.0 | 0.00 | 0.05 | 0.00 | 93 | 1013.3 |
| 20260903062017 | 65 | 184 | 3.0 | 5.0 | 0.00 | 0.05 | 0.00 | 92 | 1013.0 |
| 20260903060903 | 65 | 184 | 3.0 | 4.0 | 0.00 | 0.05 | 0.00 | 92 | 1013.0 |
| 20260903060003 | 65 | 206 | 3.0 | 5.0 | 0.00 | 0.05 | 0.00 | 92 | 1013.2 |
| 20260903055403 | 65 | 165 | 2.0 | 3.0 | 0.00 | 0.05 | 0.00 | 92 | 1013.3 |
| 20260903054503 | 65 | 140 | 3.0 | 4.0 | 0.00 | 0.05 | 0.00 | 92 | 1013.4 |
| 20260903053603 | 65 | 142 | 3.0 | 4.0 | 0.00 | 0.05 | 0.00 | 91 | 1013.2 |
| 20260903052703 | 65 | 190 | 2.0 | 6.0 | 0.00 | 0.05 | 0.00 | 91 | 1013.1 |
| 20260903051803 | 65 | 154 | 2.0 | 5.0 | 0.00 | 0.05 | 0.00 | 90 | 1013.0 |
| 20260903050903 | 65 | 249 | 2.0 | 4.0 | 0.00 | 0.05 | 0.00 | 90 | 1013.1 |
| 20260903050003 | 65 | 153 | 3.0 | 5.0 | 0.00 | 0.05 | 0.00 | 90 | 1012.7 |
| 20260903045403 | 65 | 143 | 3.0 | 6.0 | 0.00 | 0.05 | 0.00 | 91 | 1012.9 |
| 20260903044503 | 65 | 243 | 4.0 | 7.0 | 0.00 | 0.05 | 0.00 | 92 | 1012.8 |
| 20260903043603 | 65 | 258 | 3.0 | 7.0 | 0.00 | 0.05 | 0.00 | 93 | 1012.6 |
| 20260903042703 | 65 | 183 | 4.0 | 6.0 | 0.00 | 0.05 | 0.00 | 94 | 1012.6 |
| 20260903041803 | 65 | 173 | 3.0 | 5.0 | 0.00 | 0.05 | 0.00 | 95 | 1012.6 |
| 20260903040903 | 64 | 156 | 3.0 | 4.0 | 0.00 | 0.05 | 0.00 | 96 | 1012.5 |
| 20260903040003 | 64 | 190 | 2.0 | 4.0 | 0.00 | 0.05 | 0.00 | 96 | 1012.6 |
| 20260903035403 | 64 | 171 | 2.0 | 4.0 | 0.00 | 0.05 | 0.00 | 96 | 1013.1 |
| 20260903034717 | 64 | 149 | 2.0 | 4.0 | 0.00 | 0.05 | 0.00 | 96 | 1012.8 |
| 20260903033603 | 64 | 173 | 3.0 | 4.0 | 0.00 | 0.05 | 0.00 | 95 | 1012.6 |
| 20260903032703 | 64 | 176 | 4.0 | 6.0 | 0.00 | 0.05 | 0.00 | 95 | 1012.9 |
| 20260903031803 | 64 | 172 | 4.0 | 5.0 | 0.00 | 0.05 | 0.00 | 95 | 1012.7 |
| 20260903030903 | 64 | 143 | 3.0 | 4.0 | 0.00 | 0.05 | 0.00 | 95 | 1012.8 |
| 20260903030003 | 64 | 163 | 3.0 | 4.0 | 0.00 | 0.05 | 0.00 | 95 | 1012.8 |
| 20260903025403 | 64 | 172 | 3.0 | 4.0 | 0.00 | 0.05 | 0.00 | 95 | 1012.6 |
| 20260903024503 | 64 | 175 | 3.0 | 4.0 | 0.00 | 0.05 | 0.00 | 95 | 1012.7 |
| 20260903023603 | 64 | 169 | 2.0 | 4.0 | 0.00 | 0.05 | 0.00 | 95 | 1012.9 |
| 20260903022703 | 64 | 167 | 3.0 | 4.0 | 0.00 | 0.05 | 0.00 | 95 | 1012.8 |
| 20260903021803 | 64 | 195 | 5.0 | 8.0 | 0.00 | 0.05 | 0.00 | 95 | 1012.6 |
| 20260903021116 | 64 | 160 | 5.0 | 7.0 | 0.00 | 0.05 | 0.00 | 95 | 1012.9 |
| 20260903020218 | 64 | 171 | 4.0 | 5.0 | 0.00 | 0.05 | 0.00 | 95 | 1012.8 |
| 20260903015403 | 64 | 104 | 3.0 | 4.0 | 0.00 | 0.05 | 0.00 | 95 | 1012.7 |
| 20260903014503 | 64 | 182 | 4.0 | 7.0 | 0.00 | 0.05 | 0.00 | 95 | 1012.5 |
| 20260903013603 | 64 | 173 | 3.0 | 4.0 | 0.00 | 0.05 | 0.00 | 95 | 1012.9 |
| 20260903012703 | 64 | 150 | 4.0 | 6.0 | 0.00 | 0.05 | 0.00 | 95 | 1012.7 |
| 20260903012017 | 64 | 147 | 4.0 | 6.0 | 0.00 | 0.05 | 0.00 | 95 | 1012.9 |
| 20260903010903 | 64 | 156 | 2.0 | 3.0 | 0.00 | 0.05 | 0.00 | 95 | 1012.7 |
| 20260903010003 | 64 | 154 | 2.0 | 4.0 | 0.00 | 0.05 | 0.00 | 95 | 1012.8 |
| 20260903005403 | 64 | 148 | 3.0 | 6.0 | 0.00 | 0.05 | 0.00 | 95 | 1012.7 |
| 20260903004503 | 64 | 148 | 3.0 | 4.0 | 0.00 | 0.05 | 0.00 | 94 | 1012.9 |
| 20260903003818 | 64 | 157 | 4.0 | 5.0 | 0.00 | 0.05 | 0.00 | 94 | 1013.1 |
| 20260903002917 | 64 | 159 | 3.0 | 4.0 | 0.00 | 0.05 | 0.00 | 94 | 1013.0 |
| 20260903001803 | 64 | 180 | 3.0 | 4.0 | 0.00 | 0.05 | 0.00 | 94 | 1013.1 |
| 20260903000903 | 64 | 146 | 3.0 | 4.0 | 0.00 | 0.05 | 0.00 | 93 | 1012.8 |
| 20260903000003 | 64 | 162 | 2.0 | 5.0 | 0.00 | 0.05 | 0.00 | 93 | 1013.0 |
| 20260902235403 | 64 | 146 | 3.0 | 5.0 | 0.00 | 0.05 | 0.00 | 93 | 1013.1 |
| 20260902234503 | 64 | 151 | 2.0 | 3.0 | 0.00 | 0.05 | 0.00 | 93 | 1013.3 |
| 20260902233603 | 64 | 165 | 2.0 | 2.0 | 0.00 | 0.05 | 0.00 | 93 | 1013.2 |
| 20260902232703 | 64 | 170 | 2.0 | 4.0 | 0.00 | 0.05 | 0.00 | 93 | 1013.3 |
| 20260902232018 | 64 | 146 | 2.0 | 4.0 | 0.00 | 0.05 | 0.00 | 93 | 1013.1 |
| 20260902230903 | 64 | 170 | 3.0 | 4.0 | 0.00 | 0.05 | 0.00 | 93 | 1013.3 |
| 20260902230003 | 64 | 167 | 3.0 | 4.0 | 0.00 | 0.05 | 0.00 | 94 | 1012.9 |
| 20260902225403 | 64 | 162 | 2.0 | 4.0 | 0.00 | 0.05 | 0.05 | 94 | 1012.9 |
| 20260902224503 | 64 | 163 | 3.0 | 4.0 | 0.00 | 0.05 | 0.05 | 95 | 1013.1 |
| 20260902223603 | 64 | 164 | 3.0 | 4.0 | 0.00 | 0.05 | 0.05 | 95 | 1013.3 |
| 20260902222703 | 64 | 178 | 3.0 | 7.0 | 0.00 | 0.05 | 0.05 | 95 | 1013.3 |
| 20260902221803 | 64 | 165 | 3.0 | 5.0 | 0.00 | 0.05 | 0.05 | 96 | 1013.1 |
| 20260902220903 | 64 | 161 | 2.0 | 4.0 | 0.00 | 0.05 | 0.05 | 96 | 1013.7 |
| 20260902220003 | 64 | 172 | 1.0 | 3.0 | 0.00 | 0.05 | 0.05 | 96 | 1013.5 |
| 20260902215403 | 64 | 156 | 1.0 | 4.0 | 0.00 | 0.05 | 0.05 | 96 | 1013.3 |
| 20260902214717 | 64 | 154 | 2.0 | 4.0 | 0.00 | 0.05 | 0.05 | 96 | 1013.2 |
| 20260902213816 | 64 | 135 | 2.0 | 3.0 | 0.00 | 0.05 | 0.05 | 96 | 1013.5 |
| 20260902212703 | 64 | 109 | 3.0 | 4.0 | 0.00 | 0.05 | 0.05 | 96 | 1013.2 |
| 20260902211803 | 64 | 133 | 2.0 | 4.0 | 0.00 | 0.05 | 0.05 | 96 | 1013.0 |
| 20260902210903 | 64 | 177 | 3.0 | 4.0 | 0.00 | 0.05 | 0.05 | 96 | 1013.1 |
| 20260902210003 | 64 | 167 | 4.0 | 5.0 | 0.00 | 0.05 | 0.05 | 95 | 1013.0 |
| 20260902205403 | 64 | 165 | 4.0 | 5.0 | 0.00 | 0.05 | 0.05 | 95 | 1013.1 |
| 20260902204503 | 64 | 160 | 3.0 | 4.0 | 0.00 | 0.05 | 0.05 | 95 | 1012.8 |
| 20260902203603 | 64 | 175 | 3.0 | 4.0 | 0.00 | 0.05 | 0.05 | 94 | 1013.3 |
| 20260902202703 | 64 | 145 | 3.0 | 5.0 | 0.00 | 0.05 | 0.05 | 94 | 1013.0 |